This demonstration page uses our WeatherBlox Daily Observations layout. Learn more.

Left ArrowRight Arrow

39.92423, -83.80882

Hourly Observations for February 14, 2016

Temp ( °F °C ) Dew Point ( °F °C ) Humidity (%) Winds ( mph kmh ) Pressure ( in mb ) Visibility ( mi km ) Precip ( " mm )
12:56 am 00:56 Clear 1 -17.2 -3 -19.4 83 83 N N/A 30.53 1034 10 16 N/A
1:56 am 01:56 Clear 5 -15 -1 -18.3 76 76 N N/A 30.53 1034 10 16 N/A
2:56 am 02:56 Clear 2 -16.6 -2 -18.8 83 83 N N/A 30.54 1034 10 16 N/A
3:56 am 03:56 Clear 1 -17.2 -3 -19.4 83 83 NE 6 9 30.51 1033 10 16 N/A
4:56 am 04:56 Clear 1 -17.2 -3 -19.4 83 83 E 5 7 30.51 1033 10 16 N/A
5:56 am 05:56 Clear 4 -15.5 -1 -18.3 79 79 SSE 3 6 30.52 1034 10 16 N/A
6:56 am 06:56 Clear 4 -15.5 -1 -18.3 79 79 VRB 3 6 30.53 1034 10 16 N/A
7:56 am 07:56 Sunny 4 -15.5 -1 -18.3 79 79 E 6 9 30.52 1033 10 16 N/A
8:56 am 08:56 Sunny 7 -13.8 1 -17.2 76 76 ESE 8 13 30.52 1033 10 16 N/A
9:56 am 09:56 Mostly Sunny 11 -11.6 4 -15.5 73 73 SE 8 13 30.50 1033 10 16 N/A
10:56 am 10:56 Sunny 14 -10 5 -15 67 67 SE 15 24 30.47 1032 10 16 N/A
11:56 am 11:56 Sunny 15 -9.4 5 -15 64 64 SE 14 22 30.43 1030 10 16 N/A
12:56 pm 12:56 Cloudy 16 -8.8 6 -14.4 64 64 ESE 10 17 30.42 1030 10 16 N/A
1:56 pm 13:56 Mostly Cloudy 15 -9.4 7 -13.8 71 71 ESE 16 26 30.33 1027 10 16 N/A
2:56 pm 14:56 Mostly Cloudy 16 -8.8 6 -14.4 64 64 ESE 10 17 30.34 1027 10 16 N/A
3:39 pm 15:39 Cloudy with Light Snow 16 -9 7 -14 67 67 ESE 14 22 30.39 1029 3 5 N/A
3:42 pm 15:42 Cloudy with Light Snow 16 -9 7 -14 67 67 ESE 16 26 30.39 1029 2 3 N/A
3:45 pm 15:45 Cloudy with Light Snow 16 -9 9 -13 73 73 ESE 14 22 30.39 1029 2 3 N/A
3:56 pm 15:56 Cloudy with Light Snow 16 -8.8 10 -12.2 77 77 ESE 18 30 30.29 1026 1 1 N/A
4:00 pm 16:00 Cloudy with Snow 16 -9 10 -12 79 79 E 18 30 30.36 1028 1 1 N/A
4:25 pm 16:25 Cloudy with Light Snow 16 -9 12 -11 86 86 E 14 22 30.33 1027 1 1 N/A
4:36 pm 16:36 Cloudy with Light Snow 16 -9 12 -11 86 86 E 14 22 30.33 1027 1 2 N/A
4:44 pm 16:44 Cloudy with Light Snow 16 -9 12 -11 86 86 E 10 17 30.36 1028 1 1 N/A
4:56 pm 16:56 Cloudy with Light Snow 15 -9.4 12 -11.1 88 88 E 13 20 30.30 1026 1 1 N/A
5:09 pm 17:09 Cloudy with Light Snow 16 -9 12 -11 86 86 E 14 22 30.33 1027 1 1 N/A
5:13 pm 17:13 Cloudy with Light Snow 16 -9 12 -11 86 86 E 14 22 30.33 1027 1 1 N/A
5:56 pm 17:56 Cloudy with Light Snow 15 -9.4 13 -10.5 92 92 E 15 24 30.27 1025 1 1 N/A
6:08 pm 18:08 Cloudy with Light Snow 16 -9 12 -11 86 86 E 15 24 30.33 1027 1 1 N/A
6:21 pm 18:21 Cloudy with Light Snow 16 -9 12 -11 86 86 E 15 24 30.33 1027 1 2 N/A
6:31 pm 18:31 Cloudy with Light Snow 16 -9 12 -11 86 86 E 13 20 30.33 1027 2 2 N/A
6:56 pm 18:56 Cloudy with Light Snow 16 -8.8 13 -10.5 88 88 E 14 22 30.26 1025 2 3 N/A
7:03 pm 19:03 Cloudy with Light Snow 16 -9 14 -10 93 93 E 14 22 30.30 1026 2 3 N/A
7:19 pm 19:19 Cloudy with Light Snow 16 -9 12 -11 86 86 ESE 18 30 30.30 1026 3 5 N/A
7:26 pm 19:26 Cloudy with Mist and Fog 16 -9 12 -11 86 86 ESE 18 30 30.30 1026 4 6 N/A
7:56 pm 19:56 Mostly Cloudy 16 -8.8 13 -10.5 88 88 ESE 18 30 30.24 1024 10 16 N/A
8:05 pm 20:05 Cloudy 16 -9 12 -11 86 86 ESE 16 26 30.30 1026 10 16 N/A
8:56 pm 20:56 Cloudy 16 -8.8 12 -11.1 84 84 ESE 20 31 30.20 1023 10 16 N/A
9:24 pm 21:24 Cloudy 16 -9 12 -11 86 86 ESE 17 28 30.21 1023 10 16 N/A
9:56 pm 21:56 Cloudy 17 -8.3 13 -10.5 84 84 ESE 17 28 30.19 1022 10 16 N/A
10:46 pm 22:46 Cloudy 18 -8 14 -10 86 86 ESE 13 20 30.21 1023 10 16 N/A
10:56 pm 22:56 Cloudy 17 -8.3 14 -10 88 88 ESE 13 20 30.17 1022 10 16 N/A
11:16 pm 23:16 Cloudy 18 -8 14 -10 86 86 ESE 12 19 30.21 1023 10 16 N/A
11:56 pm 23:56 Cloudy 17 -8.3 14 -10 88 88 ESE 13 20 30.14 1021 10 16 N/A

Powered by AerisWeather